Regional Weather Roundup
Issued by NWS

Home | Current Version | Previous Version | Graphics & Text | Print | Product List | Glossary On
Versions: 1 2 3 4 5 6 7 8 9 10 11 12 13 14 15 16 17 18 19 20 21 22 23 24 25 26 27 28 29 30 31 32 33 34 35 36 37 38 39 40 41 42 43 44 45 46 47 48 49 50
000
ASUS44 KMEG 222100
RWRTN
TENNESSEE HOURLY STATE WEATHER ROUNDUP
NATIONAL WEATHER SERVICE MEMPHIS TN
400 PM CDT TUE JUL 22 2014

TNZ002-004-019-021-049-052-054-088>092-222200-
WEST TENNESSEE

CITY           SKY/WX    TMP DP  RH WIND       PRES   REMARKS
MEMPHIS INTL   MOSUNNY   89  69  51 N5        30.06F HX  93
NWS MEMPHIS      N/A     90 N/A N/A MISG        N/A
JACKSON        MOSUNNY   90  70  51 N3        30.05F HX  95
DYERSBURG      SUNNY     90  66  45 W5        30.06F HX  92
UNION CITY     SUNNY     90  72  55 W6        30.05F HX  96
PARIS          SUNNY     90  72  55 CALM      30.06F HX  96
LEXINGTON      MOSUNNY   90  72  55 VRB3      30.05F HX  96
SAVANNAH       SUNNY     88  75  66 CALM      30.06F HX  97
$$

TNZ008-025-027-028-033-062-065-066-222200-
NORTH MIDDLE TENNESSEE

CITY           SKY/WX    TMP DP  RH WIND       PRES   REMARKS
NASHVILLE      PTSUNNY   90  69  50 SW3       30.06F HX  94
CLARKSVILLE    MOSUNNY   93  67  42 S8        30.03F HX  96
COOKEVILLE     PTSUNNY   91  72  52 W3        30.09F HX  98
CROSSVILLE     MOSUNNY   83  66  56 VRB3      30.14F
$$

TNZ061-075-076-078-094-096-097-222200-
SOUTH MIDDLE TENNESSEE

CITY           SKY/WX    TMP DP  RH WIND       PRES   REMARKS
FAYETTEVILLE   SUNNY     84  70  61 W9        30.09F
TULLAHOMA      PTSUNNY   86  70  58 NW5       30.10F HX  90
WINCHESTER     MOSUNNY   86  70  58 CALM      30.09S HX  90
MCMINNVILLE    SUNNY     88  72  58 CALM      30.09F HX  94
COLUMBIA       SUNNY     90  72  55 VRB5      30.06F HX  96
SHELBYVILLE    MOSUNNY   90  73  58 SW5       30.08F HX  98
$$

TNZ017-018-042-046-047-222200-
NORTHEAST TENNESSEE

CITY           SKY/WX    TMP DP  RH WIND       PRES   REMARKS
TRI CITIES     MOSUNNY   88  65  46 NW3       30.11F HX  90
ELIZABETHTON   PTCLDY    86  64  48 SE5       30.11S
$$

TNZ012-013-036-069-073-074-222200-
CENTRAL EAST TENNESSEE

CITY           SKY/WX    TMP DP  RH WIND       PRES   REMARKS
KNOXVILLE      PTSUNNY   85  68  56 NE5       30.07F
OAK RIDGE      MOSUNNY   88  69  53 CALM      30.09F HX  92
GATLINBURG     PTCLDY    84  66  54 NE5       30.08S
$$

TNZ083-085-099-222200-
SOUTHEAST TENNESSEE

CITY           SKY/WX    TMP DP  RH WIND       PRES   REMARKS
CHATTANOOGA    LGT RAIN  78  72  81 NE9       30.09R
$$

SKY/WX REPORTED AS FAIR MEANS FEW OR NO CLOUDS BELOW
12 THOUSAND FEET.




USA.gov is the U.S. government's official web portal to all federal, state and local government web resources and services.